sat.trackr.live / text

‹ back to catalog

STARLINK-33658

NORAD 63384 · 2025-063X

PAYLOAD ACTIVE UNKNOWN

§ Identity

Operator
Country
US
Launch date
2025-03-26
Launch site
AFWTR
Launch vehicle
Mass (kg)
RCS (m²)

Purposes: comms

External: N2YO · Heavens-Above · Gunter

§ Orbital elements

Epoch: 2026-09-20T06:46:42.928320Z

Period
93.85 min
Inclination
53.1595°
Eccentricity
0.0001299
Mean motion
15.34403395 rev/d
Perigee alt
461.8 km
Apogee alt
463.6 km
Semi-major
6,840.8 km
B*
5.3589e-4
RAAN
222.8317°
Arg perigee
89.8137°
Mean anomaly
270.3014°
Rev number
8,463

§ Raw data

STARLINK-336581 63384U 25063X   26263.28244130  .00017774  00000+0  53589-3 0  99912 63384  53.1595 222.8317 0001299  89.8137 270.3014 15.34403395 84631

JSON: /api/v1/satellites/63384 · /tle

For live sub-satellite position, see the globe view (requires WebGL).

§ Visibility from observer

Set your observer location to see the next 7 days of passes ≥ 10°. The values pass through the URL so the page stays shareable.

No JS? Fill the form by hand. The geolocation button needs JavaScript.